Location: Sungai Bunut
(2.6333°N, 113.7333°E)
Time: 15:42:40
(UTC+00:00)

Vanguard 3 - Pass Details

Date: 04 December 2023
Orbit: 508 x 3239 km, 33.3° (Epoch: 21 February)

Event Time Altitude Azimuth Distance (km) Brightness Sun altitude
Rises 00:21:59 0° 272° (W) 2,962 9.6 28.0°
Reaches altitude 10° 00:24:24 10° 256° (WSW) 2,269 9.1 28.5°
Maximum altitude 00:28:35 23° 203° (SSW) 1,935 9.3 29.5°
Drops below altitude 10° 00:34:38 10° 154° (SSE) 3,413 11.3 30.8°
Sets 00:39:20 0° 142° (SE) 4,942 12.1 31.8°
